Regional Weather Roundup
Issued by NWS Albany, NY

Home | Current Version | Previous Version | Graphics & Text | Print | Product List | Glossary Off
Versions: 1 2 3 4 5 6 7 8 9 10 11 12 13 14 15 16 17 18 19 20 21 22 23 24 25 26 27

000
ASUS41 KALY 261510
RWRALY

NEW YORK STATE HOURLY WEATHER ROUNDUP
NATIONAL WEATHER SERVICE ALBANY NY
1100 AM EDT SUN MAR 26 2017

NOTE: "FAIR" INDICATES FEW OR NO CLOUDS BELOW 12,000 FEET WITH NO
SIGNIFICANT WEATHER AND/OR NO OBSTRUCTIONS TO VISIBILITY.

NYZ032-033-038>043-046>054-057>066-NYZ062>081-082-084-261600-
EAST


CITY           SKY/WX    TMP DP  RH WIND       PRES   REMARKS
ALBANY         CLOUDY    33  20  58 CALM      30.49S
GLENS FALLS    CLOUDY    32  17  54 NE5       30.49S WCI  27
POUGHKEEPSIE   CLOUDY    34  31  88 N5        30.50R WCI  30
NEWBURGH       CLOUDY    36  32  87 E12       30.49R WCI  27
MONTGOMERY     CLOUDY    36  30  79 NE9       30.47S WCI  29
WHITE PLAINS   PTSUNNY   38  30  73 E13G18    30.47R WCI  30
ISLIP          CLOUDY    40  36  86 E8        30.48R WCI  34
NEW YORK CITY  CLOUDY    41  32  70 NE14      30.47R
CENTRAL PARK   CLOUDY    39  32  76 E14G20    30.50R WCI  31
$$

NYZ005>009-017-018-044>046-055-056-261600-
CENTRAL


CITY           SKY/WX    TMP DP  RH WIND       PRES   REMARKS
FULTON         CLOUDY    36  27  69 VRB6G17   30.30F WCI  31
SYRACUSE       CLOUDY    36  28  73 NE16G23   30.31S WCI  26
ROME           CLOUDY    33  27  78 SE18G25   30.39F WCI  22
ELMIRA         CLOUDY    41  34  76 SE7       30.30S
BINGHAMTON     CLOUDY    33  30  88 SE16G23   30.29F WCI  23
MONTICELLO     CLOUDY    30  30 100 CALM      30.42S
$$

NYZ026>034-041>043-087-261600-
NORTH


CITY           SKY/WX    TMP DP  RH WIND       PRES   REMARKS
WATERTOWN      CLOUDY    37  28  70 NE9       30.33F WCI  30
FORT DRUM      NOT AVBL
MASSENA        CLOUDY    27  12  53 NE16      30.46F WCI  15
SARANAC LAKE   MOSUNNY   29  19  66 NE9       30.34F WCI  20
PLATTSBURGH    SUNNY     27  14  58 NE3       30.49F
$$

NYZ001>004-010>016-019>021-085-261600-
WEST


CITY           SKY/WX    TMP DP  RH WIND       PRES   REMARKS
NIAGARA FALLS  MOSUNNY   47  39  74 E12       30.14S
BUFFALO        CLOUDY    47  41  80 NE8       30.13S
DUNKIRK        PTSUNNY   53  45  74 N5        30.09F
JAMESTOWN      MOSUNNY   52  43  71 SE15      30.12S
WELLSVILLE     CLOUDY    43  40  89 S14G22    30.21R FOG
ROCHESTER      CLOUDY    45  40  82 SE13      30.20F
PENN YAN       CLOUDY    42  36  79 SE12      30.26S
$$

             KEY
       WCI = WIND CHILL INDEX
       VSB = VISIBILITY
       HX  = HEAT INDEX
$$




USA.gov is the U.S. government's official web portal to all federal, state and local government web resources and services.